www.pogodaiklimat.ru

Погода и климат >> Архив погоды >> Казахстан >> Форт-Шевченко


АРХИВ ПОГОДЫ в Форте-Шевченко

Время (UTC), дата Ветер
(напр.,м/с)
 
Видим.   Явления Облачность Т
(С)
Тd
(С)
f
(%)
Тe
(С)
Тes
(С)
Комфортность P
(гПа)
Po
(гПа)
Тmin
(С)
Tmax
(С)
R
(мм)
R24
(мм)
S
(см)
09 16.02 З 5 10 км 4/0
[Ac trans]
+1.3 -3.6 70 -4 -1 1016.5 1019.5
12 16.02 З 7 10 км 6/0
[Ci sp]
+2.2 -3.1 68 -4 -3 1015.0 1018.0
15 16.02 З 5 10 км 6/0
[Ac trans]
+2.4 -1.2 77 -3 -3 1013.9 1016.9 +2.5
18 16.02 З 10 10 км слаб. снег 10/10 300 м
[Frnb Ns]
-1.2 -2.2 93 -10 -10 1013.4 1016.4 +2.5
21 16.02 СЗ 10 10 км {снег} 10/10 600 м
[Sc]
+1.2 -0.5 88 -7 -7 1012.7 1015.7
00 17.02 З 10 10 км {снег} 10/10 600 м
[Sc]
+1.8 +0.2 89 -6 -6 1012.1 1015.1
03 17.02 З 10 10 км 10/10 600 м
[Sc]
+2.2 +0.6 89 -5 -5 1011.1 1014.1
06 17.02 З 8 10 км 10/10 600 м
[Sc]
+2.3 -0.2 84 -4 -4 1012.5 1015.5 -1.3 0.0
09 17.02 СЗ 11 10 км 10/10 600 м
[Sc]
+2.4 +0.3 86 -5 -5 1012.5 1015.5
12 17.02 СЗ 8 10 км 8/8 600 м
[Sc]
+3.2 +0.3 81 -3 -3 1012.4 1015.4
15 17.02 З 6 10 км 4/0
[Ac trans]
+3.4 -0.1 78 -2 -2 1011.3 1014.3 +3.6
18 17.02 З 6 10 км 6/0
[Ci sp]
+3.6 -0.9 72 -2 -2 1010.3 1013.2 +3.6
21 17.02 ЮЗ 8 10 км 8/0
[Ac trans]
+3.9 +1.3 83 -2 -2 1007.5 1010.4
00 18.02 ЮЗ 10 10 км 8/0
[Ci sp]
+5.5 +3.1 85 -1 -1 1003.8 1006.7
03 18.02 З 7 10 км 8/0
[Ci sp]
+5.6 +2.9 83 0 0 1000.7 1003.6
06 18.02 З 10 10 км 10/0
[Ac As]
+4.5 +1.4 80 -2 -2 1000.8 1003.7 +3.4
09 18.02 З 8 10 км 8/0
[Ac trans]
+3.6 +0.4 80 -3 -2 1001.3 1004.2
12 18.02 СЗ 12 10 км 8/0
[Ac trans]
+4.0 +0.3 77 -3 -3 1002.1 1005.0
15 18.02 СЗ 8 10 км 10/0
[Ac As]
+3.4 -0.4 76 -3 -3 1003.8 1006.8 +5.7
18 18.02 СЗ 14 10 км 10/10
[Sc]
+2.7 -3.2 65 -5 -5 1005.3 1008.3 +5.7
21 18.02 З 12 10 км 10/10 600 м
[Sc]
+1.0 -1.6 83 -7 -7 1006.5 1009.5
00 19.02 СЗ 12 10 км 10/10 600 м
[Sc]
+0.2 -3.1 78 -8 -8 1008.1 1011.1
03 19.02 СЗ 9 10 км 10/10 600 м
[Sc]
-0.1 -5.5 67 -8 -8 1009.5 1012.5
06 19.02 З 12 10 км 10/10 600 м
[Sc]
-1.8 -5.2 78 -11 -11 1012.0 1015.0 -0.2
09 19.02 СЗ 10 10 км 10/10 600 м
[Sc]
-2.1 -6.7 71 -11 -11 1014.0 1017.0
12 19.02 С 10 10 км 10/10 600 м
[Sc]
-3.7 -6.6 80 -13 -13 1016.5 1019.5
15 19.02 СЗ 11 10 км 10/10 600 м
[Sc]
-2.2 -8.9 60 -11 -11 1019.9 1022.9 -0.1
18 19.02 СЗ 7 10 км 8/0
[Ac trans]
-3.7 -9.0 67 -11 -11 1023.2 1026.3 -0.1
21 19.02 С 6 10 км 8/0
[Ac trans]
-4.8 -9.2 71 -12 -12 1025.2 1028.2
00 20.02 СЗ 8 10 км 6/0
[Ac trans]
-5.2 -10.2 68 -14 -14 1026.0 1029.0
03 20.02 СЗ 6 10 км ясно -4.8 -10.6 64 -12 -12 1026.6 1029.7
06 20.02 З 2 10 км ясно -2.7 -10.2 56 -6 -2 1028.0 1031.1 -5.4
09 20.02 ЮЗ 3 10 км ясно -0.6 -8.7 54 -5 +1 1027.7 1030.7
12 20.02 Ю 5 10 км ясно +1.4 -6.9 54 -4 -3 1026.6 1029.6
15 20.02 ЮВ 5 10 км ясно +1.1 -5.3 62 -4 -4 1025.5 1028.5 +1.5
18 20.02 ЮВ 4 10 км ясно -0.2 -3.2 80 -6 -6 1025.1 1028.1 +1.5
21 20.02 ЮВ 8 10 км ясно -0.6 -3.0 84 -8 -8 1023.0 1026.0
00 21.02 В 6 10 км ясно +0.6 -1.7 85 -6 -6 1021.0 1024.0
03 21.02 В 8 10 км 10/0
[Ac As]
+1.9 -0.6 83 -5 -5 1019.6 1022.6
06 21.02 ЮВ 10 10 км 9/0
[Ac trans]
+3.3 +0.4 81 -4 -4 1018.8 1021.8 -0.9
09 21.02 ЮВ 8 10 км 10/0
[Ac As]
+5.2 +1.7 78 -1 -0 1017.0 1019.9
12 21.02 Ю 10 10 км 9/0
[Ac trans]
+6.7 +2.6 75 +1 +1 1015.2 1018.1
15 21.02 Ю 6 10 км 6/0
[Ac trans]
+5.7 +2.0 77 +1 +1 1015.7 1018.6 +7.0
18 21.02 Ю 3 10 км ясно +3.8 +1.2 83 0 0 1016.4 1019.3 +7.0
21 21.02 Ю 2 10 км 5/0
[Ac trans]
+3.0 +0.6 84 0 0 1016.2 1019.2
00 22.02 ЮВ 3 10 км 3/0
[Ac trans]
+3.2 +0.6 83 -1 -1 1015.7 1018.7
03 22.02 ЮВ 1 10 км 3/0
[Ac trans]
+2.3 -0.2 84 +1 +1 1016.4 1019.4
06 22.02 ЮВ 2 10 км 4/0
[Ac trans]
+5.2 +2.2 81 +3 +6 1018.0 1020.9 +2.1
09 22.02 ЮЗ 2 10 км 3/0
[Ci sp]
+5.6 +2.4 80 +3 +10 1018.6 1021.5
12 22.02 ЮЗ 1 10 км 3/0
[Ci sp]
+6.0 +2.9 80 +5 +8 1019.3 1022.2
15 22.02 З 2 10 км 6/0
[Ci sp]
+3.6 +0.1 78 +1 +1 1021.0 1023.9 +6.2
18 22.02 СВ 2 10 км 4/0
[Ci sp]
+2.4 -0.9 79 -1 -1 1022.7 1025.7 +6.2
21 22.02 СВ 3 10 км 3/0
[Ci sp]
+2.1 -1.9 75 -2 -2 1023.2 1026.2
00 23.02 В 7 10 км 3/0
[Ci sp]
+3.3 -6.2 50 -2 -2 1022.8 1025.8
03 23.02 В 7 10 км 3/0
[Ci sp]
+2.9 -5.5 54 -3 -3 1023.4 1026.4
06 23.02 В 6 10 км 3/0
[Ci sp]
+4.5 -6.0 46 -0 +1 1025.0 1028.0 +1.9

 

Местоположение метеостанции Форт-Шевченко (Мангистауская область, Казахстан): широта 44.55 долгота 50.25 высота над уровнем моря -25 м.

В архиве по умолчанию представлена погода в Форте-Шевченко за последнюю неделю. Архивные данные за месяц целиком и за предыдущие месяцы, начиная с января 2011 года, Вы можете получить, выбрав интересующий диапазон дат из раскрывающегося списка и нажав кнопку "Ввод!".


*Определитесь, кто Вы:
робот инопланетянин человек

Внимание! Время в таблицах - всемирное. Для получения местного времени необходимо прибавить поправку, которая равна 5 ч.

Смотрите также архив погоды в соседних городах и на ближайших метеорологических станциях:

Погода на Кулалы Острове (Мангистауская область, Казахстан) (54 км)
Погода в Актау (Мангистауская область, Казахстан) (127 км)
Погода в Кызане (Мангистауская область, Казахстан) (138 км)
Погода в Тущыбеке (Мангистауская область, Казахстан) (142 км)
Погода в Жетыбае (Мангистауская область, Казахстан) (183 км)
Погода на Острове Тюлений (Дагестан, Россия) (220 км)
Погода в Зеленге (Астраханская область, Россия) (222 км)
Погода в Ганюшкино (Атырауская область, Казахстан) (240 км)
Погода в Лагани (Калмыкия, Россия) (247 км)
Погода в Жанаозене (Мангистауская область, Казахстан) (247 км)

Пояснения к столбцам:

Ветер - указаны скорость ветра в м/с - средняя за 10 мин, порывы в срок и между сроками (в фигурных скобках) и направление, откуда дует ветер: С - северный, СВ - северо-восточный, В - восточный, ЮВ - юго-восточный, Ю - южный, ЮЗ - юго-западный, З - западный, СЗ - северо-западный.
Видимость - горизонтальная дальность видимости в метрах или километрах. При видимости от 1 до 10 км при отсутствии осадков обычно наблюдается дымка, при ухудшении видимости до 1 км и менее - туман. В сухую погоду видимость может ухудшаться дымом, пылью или мглою.
Явления - указаны атмосферные явления, наблюдавшиеся в срок или в последний час перед сроком; фигурными скобками обозначены явления, наблюдавшиеся между сроками (за 1-3 часа до срока); квадратными скобками обозначены град или гололедные отложения с указанием их диаметра в мм.
Облачность - указаны через наклонную черту общая и нижняя облачность в баллах и высота нижней границы облаков в метрах; квадратными скобками обозначены формы облаков: Ci - перистые, Cs - перисто-слоистые, Cc - перисто-кучевые, Ac - высококучевые, As - высокослоистые, Sc - слоисто-кучевые, Ns - слоисто-дождевые, Cu - кучевые, Cb - кучево-дождевые. Подробнее классификацию облаков см. в Атласе облаков (PDF).
T - Температура воздуха - температура, измеренная на высоте 2 м над землей.
Td - Температура точки росы - температура, при понижении до которой содержащийся в воздухе водяной пар достигнет насыщения.
f - Относительная влажность воздуха - влажноcть воздуха, измеренная на высоте 2 м над землей.
Te - Эффективная температура - температура, которую ощущает одетый по сезону человек в тени. Характеристика душности погоды. При расчете учитывается влияние влажности воздуха и скорости ветра на теплоощущения человека.
Tes - Эффективная температура на солнце - температура, которую ощущает человек, с поправкой на солнечный нагрев. Характеристика знойности погоды. Зависит от высоты солнца над горизонтом, облачности и скорости ветра. Ночью, в пасмурную погоду, а также при ветре 12 м/с и более поправка равна нулю.
P - Атмосферное давление - приведенное к уровню моря атмосферное давление.
Po - Атмосферное давление - измеренное на уровне метеостанции атмосферное давление.
Tmin - Минимальная температура - минимум температуры воздуха на высоте 2 м над землей.
Tmax - Максимальная температура - максимум температуры воздуха на высоте 2 м над землей.
R - Количество осадков - Количество выпавших осадков за период времени, мм. При наведении курсора мыши на число - период времени, за который выпало указанное количество осадков.
R24 - Количество осадков - Количество выпавших осадков за 24 часа, мм.
S - Снежный покров - Высота снежного покрова, см. При наведении курсора мыши на число - состояние снежного покрова и степень покрытия местности в баллах.